User: anonymous   Login
Location: Seasalter
(51.3333°N, 1.0167°E)
Time: 11:33:24
(UTC+00:00)
Language:

SL-08 R/B - Orbit

View from above orbital plane
View from above orbital plane
View from above satellite
View from above satellite

Ground track
Ground track

The orbit data is extracted from the following two-line orbital elements,

1 27561U 02054C   24056.95013789  .00001017  00000-0  23425-3 0  9999
2 27561  98.5280 248.2505 0044767 204.9177 154.9860 14.57022154127957
Epoch (UTC): 25 February 2024 22:48:11
Eccentricity: 0.0044767
inclination: 98.5280°
perigee height: 671 km
apogee height: 734 km
right ascension of ascending node: 248.2505°
argument of perigee: 204.9177°
revolutions per day: 14.57022154
mean anomaly at epoch: 154.9860°
orbit number at epoch: 12795

The dashed part of the orbit path shows where the satellite is in the earth's shadow,  

DLR